DW4554 Weather Reports


time (UTC)temp
C
wind
direction
speed
KPH
gust
KPH
rain 1hr
cm
rain 24hr
cm
rain mn
cm
humidity
%
barometer
mb
20260503191905 16 60 1.6 4.8 0.00 0.00 0.00 48 1015.0
20260503191404 16 59 3.2 4.8 0.00 0.00 0.00 47 1015.0
20260503190904 16 73 3.2 4.8 0.00 0.00 0.00 47 1014.9
20260503190404 17 84 3.2 4.8 0.00 0.00 0.00 47 1014.9
20260503185904 17 71 1.6 4.8 0.00 0.00 0.00 47 1014.9
20260503185404 17 147 3.2 4.8 0.00 0.00 0.00 46 1014.9
20260503184405 18 147 1.6 4.8 0.00 0.00 0.00 43 1014.9
20260503183904 18 147 1.6 3.2 0.00 0.00 0.00 42 1014.8
20260503183405 18 147 0.0 3.2 0.00 0.00 0.00 40 1014.8
20260503182904 19 147 1.6 3.2 0.00 0.00 0.00 39 1014.7
20260503182404 19 147 1.6 4.8 0.00 0.00 0.00 38 1014.6
20260503181904 19 147 1.6 4.8 0.00 0.00 0.00 37 1014.6
20260503181404 20 147 1.6 4.8 0.00 0.00 0.00 37 1014.5
20260503180905 20 147 1.6 4.8 0.00 0.00 0.00 37 1014.5
20260503175904 20 157 1.6 4.8 0.00 0.00 0.00 36 1014.5
20260503175405 20 161 1.6 8.0 0.00 0.00 0.00 35 1014.4
20260503174904 20 138 1.6 11.3 0.00 0.00 0.00 35 1014.4
20260503174405 20 177 1.6 8.0 0.00 0.00 0.00 35 1014.4
20260503173404 21 164 1.6 8.0 0.00 0.00 0.00 34 1014.4
20260503172404 21 150 4.8 11.3 0.00 0.00 0.00 33 1014.3
20260503171904 21 156 1.6 11.3 0.00 0.00 0.00 33 1014.4
20260503171404 21 183 4.8 9.7 0.00 0.00 0.00 32 1014.3
20260503170904 21 197 4.8 14.5 0.00 0.00 0.00 32 1014.3
20260503170405 21 198 4.8 11.3 0.00 0.00 0.00 31 1014.3
20260503150904 25 176 6.4 12.9 0.00 0.00 0.00 30 1014.4
20260503150405 25 169 8.0 16.1 0.00 0.00 0.00 31 1014.6
20260503131404 25 194 14.5 24.1 0.00 0.00 0.00 32 1015.8
20260503130904 25 210 6.4 14.5 0.00 0.00 0.00 33 1015.8
20260503110405 22 142 3.2 9.7 0.00 0.00 0.00 38 1016.9
20260503090405 21 191 3.2 14.5 0.00 0.00 0.00 40 1017.9
20260503081405 20 136 1.6 9.7 0.00 0.00 0.00 42 1018.1
20260503080904 20 158 3.2 8.0 0.00 0.00 0.00 44 1018.0
20260503080404 19 174 3.2 12.9 0.00 0.00 0.00 43 1018.1
20260503072904 18 178 8.0 16.1 0.00 0.00 0.00 44 1018.1
20260503072404 18 185 6.4 14.5 0.00 0.00 0.00 45 1018.1
20260503071904 18 160 1.6 8.0 0.00 0.00 0.00 46 1018.0
20260503071405 18 37 1.6 8.0 0.00 0.00 0.00 47 1017.9
20260503070904 18 140 1.6 4.8 0.00 0.00 0.00 47 1018.0
20260503070404 17 134 1.6 11.3 0.00 0.00 0.00 48 1018.0
20260503054904 11 59 3.2 8.0 0.00 0.00 0.00 70 1017.9
20260503054404 11 50 4.8 8.0 0.00 0.00 0.00 72 1017.8
20260503053904 10 82 4.8 8.0 0.00 0.00 0.00 75 1017.9
20260503053404 10 49 3.2 4.8 0.00 0.00 0.00 77 1017.9
20260503052904 10 50 3.2 4.8 0.00 0.00 0.00 78 1017.9
20260503052404 10 29 3.2 4.8 0.00 0.00 0.00 79 1017.9
20260503051904 9 60 1.6 4.8 0.00 0.00 0.00 79 1017.9
20260503051404 9 60 3.2 4.8 0.00 0.00 0.00 80 1017.9
20260503050905 9 60 3.2 4.8 0.00 0.00 0.00 80 1017.9
20260503050404 8 60 3.2 4.8 0.00 0.00 0.00 81 1018.0
20260503045904 8 60 3.2 4.8 0.00 0.00 0.00 81 1018.0
20260503043404 8 60 3.2 4.8 0.00 0.00 0.00 81 1017.9
20260503042904 8 60 3.2 4.8 0.00 0.00 0.00 81 1017.8
20260503042405 8 60 1.6 4.8 0.00 0.00 0.00 81 1017.8
20260503041904 7 60 3.2 4.8 0.00 0.00 0.00 80 1017.8
20260503041405 7 60 3.2 4.8 0.00 0.00 0.00 80 1017.8
20260503040904 7 60 1.6 4.8 0.00 0.00 0.00 80 1017.7
20260503040405 7 60 3.2 4.8 0.00 0.00 0.00 80 1017.7
20260503035905 7 60 3.2 4.8 0.00 0.00 0.00 79 1017.7
20260503035404 7 60 1.6 4.8 0.00 0.00 0.00 79 1017.8
20260503034905 7 60 0.0 1.6 0.00 0.00 0.00 79 1017.8
20260503034404 7 60 1.6 3.2 0.00 0.00 0.00 80 1017.7
20260503033904 7 60 1.6 4.8 0.00 0.00 0.00 80 1017.8
20260503033404 7 60 1.6 4.8 0.00 0.00 0.00 80 1017.7
20260503032904 7 60 1.6 4.8 0.00 0.00 0.00 80 1017.6
20260503032404 7 60 3.2 4.8 0.00 0.00 0.00 80 1017.6
20260503031404 7 60 3.2 4.8 0.00 0.00 0.00 80 1017.5
20260503030904 7 60 3.2 4.8 0.00 0.00 0.00 80 1017.5
20260503030404 7 60 3.2 4.8 0.00 0.00 0.00 80 1017.5
20260503025905 7 60 3.2 4.8 0.00 0.00 0.00 80 1017.5
20260503025404 7 60 3.2 4.8 0.00 0.00 0.00 81 1017.5
20260503024904 7 60 3.2 4.8 0.00 0.00 0.00 81 1017.5
20260503024404 7 59 3.2 4.8 0.00 0.00 0.00 80 1017.5
20260503023904 7 59 4.8 4.8 0.00 0.00 0.00 80 1017.6
20260503023404 7 59 3.2 4.8 0.00 0.00 0.00 80 1017.5
20260503022905 7 59 3.2 4.8 0.00 0.00 0.00 80 1017.6
20260503022404 7 57 3.2 8.0 0.00 0.00 0.00 80 1017.5
20260503021904 7 56 1.6 4.8 0.00 0.00 0.00 80 1017.5
20260503021404 7 56 3.2 4.8 0.00 0.00 0.00 79 1017.5
20260503020404 7 56 3.2 4.8 0.00 0.00 0.00 79 1017.5
20260503015905 7 56 3.2 4.8 0.00 0.00 0.00 79 1017.6
20260503014904 7 56 3.2 4.8 0.00 0.00 0.00 78 1017.7
20260503014404 7 56 3.2 4.8 0.00 0.00 0.00 78 1017.7
20260503013904 7 56 3.2 4.8 0.00 0.00 0.00 78 1017.7
20260503013404 7 56 3.2 4.8 0.00 0.00 0.00 77 1017.6
20260503012404 7 56 3.2 4.8 0.00 0.00 0.00 77 1017.6
20260503010904 7 56 0.0 3.2 0.00 0.00 0.00 76 1017.5
20260503010417 7 56 0.0 4.8 0.00 0.00 0.00 76 1017.5
20260503005904 7 56 1.6 4.8 0.00 0.00 0.00 76 1017.5
20260503004904 7 55 4.8 4.8 0.00 0.00 0.00 75 1017.5
20260503003905 7 52 1.6 3.2 0.00 0.00 0.00 74 1017.5
20260503002905 8 52 3.2 4.8 0.00 0.00 0.00 74 1017.5
20260503002404 8 52 0.0 0.0 0.00 0.00 0.00 73 1017.5
20260503001904 8 52 0.0 0.0 0.00 0.00 0.00 72 1017.4
20260503001404 8 52 0.0 0.0 0.00 0.00 0.00 72 1017.4
20260503000904 8 52 0.0 0.0 0.00 0.00 0.00 71 1017.4
20260503000404 8 52 0.0 0.0 0.00 0.00 0.00 71 1017.4
20260502235904 8 52 0.0 0.0 0.00 0.00 0.00 71 1017.3
20260502235404 8 52 1.6 3.2 0.00 0.00 0.00 70 1017.3
20260502234904 8 52 0.0 1.6 0.00 0.00 0.00 70 1017.3
20260502234405 8 52 0.0 0.0 0.00 0.00 0.00 69 1017.3
20260502233904 8 52 0.0 1.6 0.00 0.00 0.00 69 1017.4
20260502233405 9 52 1.6 3.2 0.00 0.00 0.00 68 1017.4
20260502232904 9 52 3.2 3.2 0.00 0.00 0.00 68 1017.4
20260502232405 9 52 1.6 3.2 0.00 0.00 0.00 68 1017.4
20260502231904 9 52 3.2 4.8 0.00 0.00 0.00 67 1017.3
20260502231405 10 52 0.0 0.0 0.00 0.00 0.00 67 1017.5
20260502230904 10 52 0.0 19.3 0.00 0.00 0.00 66 1017.5
20260502230404 10 52 1.6 1.6 0.00 0.00 0.00 66 1017.4
20260502225904 10 52 0.0 0.0 0.00 0.00 0.00 65 1017.5
20260502225404 10 52 0.0 1.6 0.00 0.00 0.00 65 1017.4
20260502224904 10 52 1.6 3.2 0.00 0.00 0.00 65 1017.5
20260502223904 11 52 0.0 0.0 0.00 0.00 0.00 64 1017.6
20260502223404 11 52 0.0 1.6 0.00 0.00 0.00 64 1017.6
20260502222905 11 52 0.0 3.2 0.00 0.00 0.00 62 1017.7
20260502222404 11 52 1.6 3.2 0.00 0.00 0.00 62 1017.6
20260502221404 11 28 3.2 4.8 0.00 0.00 0.00 61 1017.6
20260502220905 11 28 3.2 4.8 0.00 0.00 0.00 61 1017.6
20260502220404 11 28 3.2 4.8 0.00 0.00 0.00 61 1017.7
20260502215905 11 28 1.6 4.8 0.00 0.00 0.00 60 1017.7
20260502215404 11 28 3.2 4.8 0.00 0.00 0.00 60 1017.7
20260502214904 11 28 4.8 4.8 0.00 0.00 0.00 60 1017.7
20260502214405 11 53 4.8 8.0 0.00 0.00 0.00 60 1017.6
20260502213905 11 59 3.2 4.8 0.00 0.00 0.00 60 1017.7
20260502213405 12 59 3.2 4.8 0.00 0.00 0.00 60 1017.7
20260502212904 12 59 3.2 4.8 0.00 0.00 0.00 59 1017.6
20260502212404 12 57 3.2 4.8 0.00 0.00 0.00 59 1017.6
20260502211904 12 60 4.8 4.8 0.00 0.00 0.00 59 1017.7
20260502211404 12 61 3.2 4.8 0.00 0.00 0.00 59 1017.7
20260502210904 12 51 3.2 4.8 0.00 0.00 0.00 59 1017.7
20260502210404 12 64 3.2 4.8 0.00 0.00 0.00 58 1017.8
20260502205405 12 67 3.2 4.8 0.00 0.00 0.00 58 1017.8
20260502204404 12 60 3.2 4.8 0.00 0.00 0.00 57 1017.9
20260502203904 13 61 3.2 4.8 0.00 0.00 0.00 56 1017.9
20260502203405 13 65 3.2 4.8 0.00 0.00 0.00 56 1017.9
20260502202904 13 65 3.2 4.8 0.00 0.00 0.00 55 1017.9
20260502202404 13 65 3.2 4.8 0.00 0.00 0.00 55 1018.0
20260502201904 13 65 3.2 4.8 0.00 0.00 0.00 54 1018.0
20260502201418 13 65 1.6 4.8 0.00 0.00 0.00 54 1018.0
20260502200405 14 65 1.6 1.6 0.00 0.00 0.00 53 1017.9
20260502195404 15 65 1.6 3.2 0.00 0.00 0.00 53 1018.0
20260502194404 15 65 0.0 1.6 0.00 0.00 0.00 52 1018.0
20260502193404 15 65 0.0 0.0 0.00 0.00 0.00 49 1018.0
20260502192904 16 65 0.0 0.0 0.00 0.00 0.00 49 1017.9